DW6064 Weather Reports


time (UTC)temp
F
wind
direction
speed
knots
gust
knots
rain 1hr
in
rain 24hr
in
rain mn
in
humidity
%
barometer
mb
20260504221539 75 180 9.6 13.9 0.00 0.00 0.00 36 1007.4
20260504221057 75 189 8.7 14.8 0.00 0.00 0.00 37 1007.5
20260504220553 75 161 7.8 13.9 0.00 0.00 0.00 37 1007.5
20260504220027 75 169 9.6 13.9 0.00 0.00 0.00 37 1007.5
20260504215541 75 180 7.0 13.9 0.00 0.00 0.00 37 1007.5
20260504215035 75 184 8.7 15.6 0.00 0.00 0.00 36 1007.6
20260504214524 75 166 12.2 17.4 0.00 0.00 0.00 36 1007.6
20260504214042 75 181 13.0 20.0 0.00 0.00 0.00 36 1007.5
20260504213600 76 180 12.2 20.0 0.00 0.00 0.00 35 1007.6
20260504213033 76 188 11.3 18.2 0.00 0.00 0.00 35 1007.5
20260504212550 77 175 14.8 18.2 0.00 0.00 0.00 34 1007.5
20260504212024 77 157 8.7 17.4 0.00 0.00 0.00 35 1007.5
20260504211603 77 196 13.9 17.4 0.00 0.00 0.00 34 1007.5
20260504211043 77 199 10.4 14.8 0.00 0.00 0.00 34 1007.5
20260504210543 77 186 10.4 13.9 0.00 0.00 0.00 34 1007.5
20260504210036 77 178 9.6 15.6 0.00 0.00 0.00 34 1007.4
20260504205528 77 182 11.3 15.6 0.00 0.00 0.00 34 1007.5
20260504205025 77 157 12.2 15.6 0.00 0.00 0.00 34 1007.6
20260504204559 77 188 10.4 20.9 0.00 0.00 0.00 34 1007.7
20260504204059 77 164 11.3 20.9 0.00 0.00 0.00 34 1007.8
20260504203530 77 149 10.4 20.0 0.00 0.00 0.00 34 1007.9
20260504203106 77 141 11.3 20.0 0.00 0.00 0.00 34 1007.9
20260504202538 77 180 9.6 15.6 0.00 0.00 0.00 35 1007.9
20260504202034 77 163 10.4 19.1 0.00 0.00 0.00 34 1007.9
20260504201526 76 148 14.8 20.0 0.00 0.00 0.00 34 1008.0
20260504201043 76 181 13.0 20.0 0.00 0.00 0.00 34 1008.1
20260504200533 77 160 12.2 17.4 0.00 0.00 0.00 33 1008.1
20260504200030 77 177 11.3 18.2 0.00 0.00 0.00 34 1008.3
20260504195529 77 165 11.3 15.6 0.00 0.00 0.00 33 1008.2
20260504195027 77 190 12.2 16.5 0.00 0.00 0.00 34 1008.4
20260504194604 77 171 12.2 18.2 0.00 0.00 0.00 34 1008.4
20260504194042 77 161 12.2 17.4 0.00 0.00 0.00 34 1008.5
20260504193543 77 160 8.7 17.4 0.00 0.00 0.00 35 1008.6
20260504193041 76 171 13.0 20.0 0.00 0.00 0.00 35 1008.7
20260504192541 77 183 11.3 20.0 0.00 0.00 0.00 34 1008.7
20260504192041 77 224 9.6 18.2 0.00 0.00 0.00 34 1009.0
20260504191542 77 168 13.0 18.2 0.00 0.00 0.00 33 1008.9
20260504191104 76 173 12.2 17.4 0.00 0.00 0.00 34 1009.0
20260504190537 76 182 9.6 14.8 0.00 0.00 0.00 35 1009.0
20260504190035 76 119 12.2 16.5 0.00 0.00 0.00 35 1009.2
20260504185527 76 163 13.0 19.1 0.00 0.00 0.00 34 1009.2
20260504185025 76 159 12.2 20.9 0.00 0.00 0.00 34 1009.4
20260504184542 76 144 8.7 13.9 0.00 0.00 0.00 36 1009.4
20260504184044 76 179 7.8 16.5 0.00 0.00 0.00 35 1009.4
20260504183537 75 219 4.3 16.5 0.00 0.00 0.00 37 1009.6
20260504183059 75 194 12.2 18.2 0.00 0.00 0.00 35 1009.7
20260504182541 75 188 10.4 18.2 0.00 0.00 0.00 35 1009.8
20260504182041 75 142 9.6 18.2 0.00 0.00 0.00 36 1009.9
20260504181539 74 142 9.6 17.4 0.00 0.00 0.00 34 1009.9
20260504181040 75 180 12.2 17.4 0.00 0.00 0.00 36 1010.1
20260504180536 75 202 8.7 14.8 0.00 0.00 0.00 36 1010.1
20260504180038 74 139 11.3 16.5 0.00 0.00 0.00 35 1010.1
20260504175533 74 160 13.0 16.5 0.00 0.00 0.00 36 1010.2
20260504175026 75 222 7.8 16.5 0.00 0.00 0.00 34 1010.3
20260504174604 74 205 6.1 12.2 0.00 0.00 0.00 35 1010.3
20260504174036 74 215 7.0 11.3 0.00 0.00 0.00 37 1010.4
20260504173531 73 174 7.0 14.8 0.00 0.00 0.00 36 1010.4
20260504173025 73 234 8.7 14.8 0.00 0.00 0.00 38 1010.6
20260504172604 73 194 8.7 14.8 0.00 0.00 0.00 36 1010.7
20260504172043 73 190 10.4 14.8 0.00 0.00 0.00 36 1010.8
20260504171541 73 178 8.7 14.8 0.00 0.00 0.00 37 1010.7
20260504171037 72 260 5.2 11.3 0.00 0.00 0.00 38 1010.8
20260504170531 72 211 7.8 11.3 0.00 0.00 0.00 38 1010.9
20260504151044 66 244 10.4 20.0 0.00 0.00 0.00 40 1012.2
20260504150539 66 229 3.5 8.7 0.00 0.00 0.00 45 1012.3
20260504141039 63 269 8.7 15.6 0.00 0.00 0.00 41 1012.5
20260504140539 63 179 7.8 11.3 0.00 0.00 0.00 43 1012.4
20260504130541 58 157 8.7 12.2 0.00 0.00 0.00 45 1012.7
20260504110540 48 146 3.5 6.1 0.00 0.00 0.00 59 1013.1
20260504100534 46 136 3.5 4.3 0.00 0.00 0.00 64 1013.1
20260504081536 44 149 1.7 2.6 0.00 0.00 0.00 64 1013.6
20260504081041 44 149 1.7 4.3 0.00 0.00 0.00 63 1013.7
20260504080541 44 149 1.7 4.3 0.00 0.00 0.00 64 1013.7
20260504050537 43 146 1.7 3.5 0.00 0.00 0.00 70 1014.1
20260504045536 44 146 2.6 3.5 0.00 0.00 0.00 69 1014.1
20260504045039 44 138 1.7 3.5 0.00 0.00 0.00 68 1014.0
20260504044539 44 138 1.7 3.5 0.00 0.00 0.00 68 1014.1
20260504044037 44 138 1.7 2.6 0.00 0.00 0.00 67 1014.2
20260504043559 44 138 1.7 2.6 0.00 0.00 0.00 66 1014.2
20260504043039 44 138 1.7 3.5 0.00 0.00 0.00 67 1014.2
20260504042537 44 138 0.9 3.5 0.00 0.00 0.00 67 1014.3
20260504042034 44 138 1.7 4.3 0.00 0.00 0.00 67 1014.2
20260504041530 44 145 2.6 6.1 0.00 0.00 0.00 66 1014.2
20260504041051 44 139 3.5 6.1 0.00 0.00 0.00 65 1014.3
20260504040524 44 144 3.5 4.3 0.00 0.00 0.00 66 1014.3
20260504040044 44 143 2.6 4.3 0.00 0.00 0.00 66 1014.3
20260504035539 44 146 3.5 4.3 0.00 0.00 0.00 67 1014.3
20260504035043 45 148 3.5 4.3 0.00 0.00 0.00 68 1014.3
20260504034543 45 144 2.6 4.3 0.00 0.00 0.00 67 1014.4
20260504034157 45 138 2.6 4.3 0.00 0.00 0.00 67 1014.3
20260504033542 46 149 2.6 4.3 0.00 0.00 0.00 66 1014.4
20260504033043 46 149 1.7 2.6 0.00 0.00 0.00 65 1014.2
20260504032542 46 149 1.7 2.6 0.00 0.00 0.00 65 1014.2
20260504032044 46 149 1.7 2.6 0.00 0.00 0.00 64 1014.3
20260504031539 47 149 0.0 0.0 0.00 0.00 0.00 63 1014.3
20260504031041 47 149 0.0 0.0 0.00 0.00 0.00 62 1014.3
20260504030537 47 149 0.0 0.0 0.00 0.00 0.00 61 1014.2
20260504030035 47 149 0.0 0.0 0.00 0.00 0.00 61 1014.1
20260504025528 47 149 0.0 0.9 0.00 0.00 0.00 60 1014.1
20260504025102 47 149 0.0 2.6 0.00 0.00 0.00 60 1014.0
20260504024601 48 149 0.9 3.5 0.00 0.00 0.00 59 1014.0
20260504024042 48 149 1.7 4.3 0.00 0.00 0.00 58 1014.1
20260504023537 48 140 1.7 4.3 0.00 0.00 0.00 59 1014.0
20260504023042 49 144 1.7 4.3 0.00 0.00 0.00 58 1014.0
20260504022540 49 142 2.6 4.3 0.00 0.00 0.00 57 1014.0
20260504022040 50 115 0.9 2.6 0.00 0.00 0.00 58 1014.0
20260504021532 50 115 0.0 0.0 0.00 0.00 0.00 56 1014.0
20260504021024 50 115 0.0 0.0 0.00 0.00 0.00 56 1014.0
20260504020540 51 115 0.0 0.0 0.00 0.00 0.00 53 1013.9
20260504020041 51 115 0.0 0.0 0.00 0.00 0.00 54 1013.8
20260504015540 51 115 0.0 0.0 0.00 0.00 0.00 53 1013.8
20260504015037 51 115 0.0 0.0 0.00 0.00 0.00 51 1013.7
20260504014524 52 115 0.0 0.0 0.00 0.00 0.00 50 1013.7
20260504014104 52 115 0.0 0.0 0.00 0.00 0.00 49 1013.7
20260504013601 52 115 0.0 1.7 0.00 0.00 0.00 48 1013.7
20260504013042 53 115 0.9 2.6 0.00 0.00 0.00 47 1013.7
20260504012602 53 113 0.9 2.6 0.00 0.00 0.00 48 1013.6
20260504012043 53 247 0.0 3.5 0.00 0.00 0.00 49 1013.6
20260504011602 53 247 0.0 3.5 0.00 0.00 0.00 47 1013.5
20260504011040 53 209 1.7 2.6 0.00 0.00 0.00 44 1013.4
20260504010556 54 209 0.9 1.7 0.00 0.00 0.00 44 1013.4
20260504010033 54 209 0.9 2.6 0.00 0.00 0.00 44 1013.4
20260504005525 55 209 1.7 2.6 0.00 0.00 0.00 45 1013.5
20260504005044 55 254 0.9 1.7 0.00 0.00 0.00 43 1013.4
20260504004536 55 254 0.0 3.5 0.00 0.00 0.00 41 1013.4
20260504004040 55 254 1.7 6.1 0.00 0.00 0.00 41 1013.3
20260504003533 55 259 2.6 7.0 0.00 0.00 0.00 40 1013.3
20260504003031 56 249 3.5 7.0 0.00 0.00 0.00 39 1013.3
20260504002524 56 267 1.7 4.3 0.00 0.00 0.00 39 1013.2
20260504002105 56 273 2.6 7.0 0.00 0.00 0.00 39 1013.2
20260504001603 57 258 3.5 7.0 0.00 0.00 0.00 39 1013.3
20260504001041 57 255 2.6 7.8 0.00 0.00 0.00 39 1013.2
20260504000540 57 244 3.5 7.8 0.00 0.00 0.00 38 1013.2
20260504000057 58 258 2.6 8.7 0.00 0.00 0.00 38 1013.2
20260503235553 58 247 3.5 8.7 0.00 0.00 0.00 37 1013.1
20260503235027 58 242 4.3 9.6 0.00 0.00 0.00 36 1013.1
20260503234603 58 262 5.2 9.6 0.00 0.00 0.00 36 1013.0
20260503234037 59 269 6.1 8.7 0.00 0.00 0.00 36 1012.9
20260503233529 59 253 5.2 8.7 0.00 0.00 0.00 35 1013.0
20260503233051 59 272 3.5 8.7 0.00 0.00 0.00 36 1012.9
20260503232551 59 252 4.3 10.4 0.00 0.00 0.00 35 1012.9
20260503232023 60 311 4.3 10.4 0.00 0.00 0.00 35 1012.8
20260503231603 60 270 3.5 10.4 0.00 0.00 0.00 34 1012.8
20260503231041 60 286 7.0 12.2 0.00 0.00 0.00 33 1012.7
20260503230533 60 292 6.1 12.2 0.00 0.00 0.00 33 1012.7
20260503230023 61 298 3.5 8.7 0.00 0.00 0.00 33 1012.6
20260503225542 61 280 3.5 8.7 0.00 0.00 0.00 33 1012.7
20260503225041 61 300 4.3 11.3 0.00 0.00 0.00 33 1012.7
20260503224539 61 271 6.1 16.5 0.00 0.00 0.00 33 1012.7
20260503224034 61 277 6.1 16.5 0.00 0.00 0.00 32 1012.6
20260503223553 62 234 7.0 13.0 0.00 0.00 0.00 32 1012.7
20260503223025 62 221 7.8 12.2 0.00 0.00 0.00 31 1012.7
20260503222538 62 251 4.3 10.4 0.00 0.00 0.00 33 1012.7
20260503222032 62 278 5.2 10.4 0.00 0.00 0.00 34 1012.7